Location: Duhaut
(48.2500°N, 4.2000°W)
Time: 11:58:35
(UTC+00:00)

Daily predictions for brighter satellites

Satellite Brightness Start Highest point End
(mag) Time Altitude Azimuth Time Altitude Azimuth Time Altitude Azimuth
ALOS 2.9 16:59:00 10° S 17:03:38 64° W 17:08:17 10° NNW
Cosmos 724 4.3 16:58:10 10° NNW 17:04:01 64° NE 17:09:45 10° SE
PSLV R/B 4.3 17:00:44 10° NNE 17:04:49 46° E 17:08:51 10° S
SMAP 3.3 17:02:42 10° SE 17:07:07 45° ENE 17:11:35 10° N
Cosmos 1980 Rocket 3.2 17:03:29 10° SSE 17:08:09 27° ESE 17:12:52 10° NE
Cosmos 397 4.4 17:04:51 10° NNW 17:08:58 64° NE 17:13:08 10° SE
ERBS 2.6 17:06:32 10° WSW 17:09:50 61° NNW 17:13:09 10° NE
ASTEX 1 3.6 17:04:56 10° N 17:09:57 84° W 17:14:56 10° S
Cosmos 1862 3.8 17:07:08 10° N 17:10:53 38° ENE 17:14:37 10° SE
USA 215 3.9 17:05:24 10° ENE 17:11:27 42° N 17:17:31 10° WNW
Cosmos 2297 Rocket 3.2 17:08:24 10° NW 17:13:55 54° WSW 17:19:23 10° S
Cosmos 2227 Rocket 3.0 17:09:22 10° NW 17:14:56 57° WSW 17:20:26 10° S
Lacrosse 4 Rocket 1.3 17:11:00 10° SSW 17:15:03 76° ESE 17:19:07 10° NE
NOSS 2-3 (E) 4.0 17:15:20 10° SSW 17:19:34 52° ESE 17:24:32 10° NE
Cosmos 923 Rocket 4.1 17:15:51 10° S 17:20:57 59° ESE 17:26:05 10° NNE
USA 229 DEB 3.9 17:16:23 10° SW 17:22:58 72° NW 17:29:56 10° NE
Cosmos 1624 Rocket 4.4 17:17:52 10° NNW 17:23:00 44° ENE 17:28:04 10° SE
SeaSat 1 3.2 17:18:47 10° ESE 17:23:03 30° NE 17:27:21 10° NNW
USA 229 3.9 17:16:29 10° SW 17:23:04 72° NW 17:30:01 10° NE
Cosmos 2056 Rocket 3.8 17:19:35 10° NNW 17:24:29 42° ENE 17:29:25 10° SE
BREEZE-M DEB (TANK) 3.2 17:13:58 10° W 17:24:53 83° N 17:27:57 12° E
NOSS 3-1 (C) 3.6 17:19:30 10° SW 17:25:06 72° NW 17:31:41 10° NE
Cosmos 2263 Rocket 2.9 17:22:09 10° NNW 17:27:04 30° NE 17:31:56 10° ESE
Cosmos 1805 Rocket 4.0 17:22:56 10° NNW 17:27:18 68° W 17:31:39 10° S
NOSS 3-1 (A) 3.4 17:22:35 10° SW 17:28:09 85° SE 17:34:42 10° NE
ATLAS 5 CENTAUR R/B 4.4 17:23:08 10° NW 17:28:23 34° WSW 17:34:13 10° S
NOSS 2-3 (D) 3.9 17:25:02 10° SSW 17:29:19 58° ESE 17:34:17 10° NE
Cosmos 1689 Rocket 4.1 17:27:29 10° N 17:30:12 29° WNW 17:32:54 10° SW
H-2A R/B 2.6 17:30:55 10° SSE 17:34:43 69° ENE 17:38:29 10° N
YAOGAN 6 3.7 17:32:00 10° ESE 17:34:44 22° ENE 17:37:29 10° NNE
Feng Yun 1-1 Rocket 4.3 17:33:55 10° SSE 17:39:28 87° WSW 17:44:56 10° NNW
Meteor 2-20 Rocket 4.5 17:35:31 10° S 17:41:39 88° E 17:47:51 10° N
IRS-1C Rocket 4.4 17:37:07 10° S 17:42:24 75° WSW 17:47:42 10° NNW
Cosmos 2369 3.7 17:38:16 10° SSW 17:43:56 90° SE 17:49:42 10° NNE
Cosmos 1697 Rocket 2.7 17:39:03 10° SSW 17:44:43 86° ESE 17:50:24 10° NNE
Cosmos 1869 4.3 17:41:12 10° SSW 17:45:01 48° WNW 17:48:50 10° N
CENTAUR R/B 4.0 17:39:53 10° NW 17:46:15 29° NNE 17:51:27 16° ENE
COBE Rocket 3.8 17:44:08 10° NNE 17:48:51 60° E 17:53:27 10° S
Cosmos 1656 4.3 17:44:00 10° SW 17:49:24 55° WNW 17:54:48 10° NNE
Envisat 3.0 17:44:29 10° SSE 17:49:27 58° ENE 17:54:27 10° N
Cosmos 1151 Rocket 3.2 17:46:48 10° S 17:51:01 51° E 17:55:18 10° NNE
YAOGAN 3 4.5 17:47:53 10° SSE 17:52:12 70° ENE 17:56:35 10° N
Cosmos 1633 Rocket 3.1 17:47:46 10° N 17:52:13 85° W 17:56:38 10° S
Cosmos 2034 Rocket 4.0 17:47:00 10° N 17:53:24 75° E 17:59:46 10° SSE
Sich 1 4.1 17:50:20 10° NNW 17:54:34 49° W 17:58:48 10° SSW
Okean-O 2.5 17:50:39 10° SSE 17:55:05 78° ENE 17:59:32 10° NNW
Cosmos 158 Rocket 4.1 17:52:26 10° S 17:57:32 53° ESE 18:02:06 12° NNE
Cosmos 2278 3.7 17:55:26 10° SSW 18:01:07 89° WNW 18:06:53 10° NNE
Cosmos 2360 4.2 17:56:53 10° SSW 18:02:36 80° ESE 18:08:10 11° NNE
Cosmos 1420 Rocket 4.3 17:58:37 10° NNW 18:03:35 44° ENE 18:08:31 10° SE
FengYun 1-2 T 4.2 18:00:23 10° SSE 18:05:48 62° ENE 18:11:14 10° N
NOSS 2-3 (C) 3.9 18:02:37 10° SW 18:07:03 73° NW 18:11:05 17° NE
Cosmos 1328 Rocket 3.4 18:02:39 10° S 18:07:03 82° E 18:11:28 10° NNE
Cosmos 1844 Rocket 4.1 18:04:15 10° N 18:08:05 18° NE 18:08:24 18° NE
Cosmos 1634 Rocket 4.2 18:02:43 10° N 18:08:39 45° ENE 18:14:30 10° SE
Cosmos 1933 Rocket 3.5 18:05:59 10° N 18:10:19 61° ENE 18:14:38 10° SSE
ATLAS 3B R/B 3.8 18:04:54 10° NW 18:10:21 25° NNE 18:12:57 20° NE
Cosmos 1452 Rocket 3.8 18:07:49 10° NNW 18:12:51 42° ENE 18:16:36 17° SE
Geosat 4.2 18:10:04 21° NE 18:13:17 50° ESE 18:18:09 10° S
Cosmos 2228 Rocket 3.5 18:09:30 10° SSE 18:13:41 40° E 18:16:06 22° NE
Cosmos 1515 Rocket 3.5 18:09:36 10° S 18:13:55 60° E 18:18:14 10° NNE
COSMO-SKYMED 1 2.7 18:10:49 14° NNE 18:14:27 52° E 18:18:42 10° S
USA 238 DEB 4.2 18:07:51 10° NW 18:14:39 45° NE 18:18:44 24° E
USA 238 4.2 18:07:57 10° NW 18:14:44 45° NE 18:18:47 24° E
Cosmos 44 4.1 18:11:11 10° NNW 18:14:53 26° NE 18:15:05 26° NE
Cosmos 1371 Rocket 4.4 18:10:16 10° NNW 18:15:26 67° WSW 18:20:33 10° S
Cosmos 1816 Rocket 4.5 18:09:09 10° S 18:15:27 70° E 18:21:48 10° NNE
ISS -1.3 18:15:35 10° SSE 18:16:05 11° SSE 18:16:05 11° SSE
NOSS 3-2 (A) 4.3 18:10:30 10° NW 18:17:23 45° NE 18:21:46 25° E
COSMOS 2455 4.0 18:15:42 10° SSE 18:19:45 22° ESE 18:19:45 22° ESE
APEX 2.9 18:18:04 10° SW 18:21:15 61° WNW 18:22:08 38° N
Cosmos 2227 4.2 18:15:30 10° NNW 18:21:19 87° ENE 18:27:04 10° SSE
CSL-04 Debris 4.1 18:18:14 10° SSE 18:23:38 63° ENE 18:29:04 10° N
Cosmos 2279 Rocket 4.4 18:18:35 10° N 18:24:21 38° ENE 18:30:06 10° SE
Tsikada Rocket 4.0 18:18:41 10° S 18:25:04 78° E 18:31:30 10° NNE
NOAA 11 4.4 18:20:46 10° SE 18:25:55 46° ENE 18:31:07 10° N
SL-8 R/B 4.1 18:26:12 10° SW 18:30:51 49° SSE 18:32:05 39° ESE
Cosmos 1606 2.5 18:27:46 10° S 18:31:30 65° E 18:32:01 56° NE
Ariane Rocket 3.5 18:32:53 36° NE 18:32:53 36° NE 18:37:09 10° N
CSL-04 Rocket 3.5 18:27:48 10° SSE 18:33:06 73° ENE 18:38:23 10° NNW
Cosmos 1680 Rocket 4.5 18:30:49 10° SW 18:35:50 46° WNW 18:40:56 10° NNE
YAOGAN 1 2.4 18:34:00 10° SSE 18:38:20 80° ENE 18:42:40 10° NNW
SKYMED 3 4.5 18:35:12 17° NNE 18:38:37 89° W 18:42:57 10° SSW
CZ-4 R/B 1.4 18:34:53 10° S 18:39:00 79° WSW 18:43:02 10° NNW
Meteor 1-26 Rocket 4.3 18:34:20 10° S 18:40:12 60° E 18:45:49 11° NNE
Cosmos 1939 Rocket 4.3 18:42:28 26° N 18:42:28 26° N 18:44:26 10° N
GEOS 3 Rocket 3.5 18:42:00 38° NE 18:44:04 78° SE 18:49:20 10° SW
Cosmos 2360 Rocket 4.3 18:42:07 10° SSE 18:42:21 11° SSE 18:42:21 11° SSE
ERBS 4.3 18:44:06 10° WNW 18:46:28 21° NNW 18:46:28 21° NNW
BREEZE-M DEB (TANK) 3.5 18:44:31 10° WNW 18:46:16 33° W 18:46:16 33° W
Cosmos 1933 3.7 18:46:57 10° SSW 18:50:59 63° WNW 18:53:14 25° N
Meteor 1-20 Rocket 4.3 18:45:53 10° NNW 18:51:46 86° W 18:57:32 10° S
Cosmos 1980 Rocket 2.8 18:46:14 10° SW 18:51:48 56° WNW 18:55:57 18° NNE
SL-16 R/B 2.2 18:48:08 10° S 18:53:38 55° ESE 18:54:04 54° E
USA 215 3.6 18:51:53 39° ENE 18:53:46 49° NNE 19:00:00 10° NW
Lacrosse 4 Rocket 3.7 18:51:28 10° W 18:54:14 17° NW 18:56:17 13° N
Meteor 1-25 Rocket 4.3 18:51:40 10° NNW 18:57:22 78° W 19:03:07 10° S
Cosmos 2322 Rocket 2.3 18:53:57 10° S 18:58:55 52° SE 18:58:55 52° SE
SeaSat 1 3.2 18:55:35 10° S 19:00:23 51° WSW 19:05:12 10° NW
SKYMED 2 4.3 18:59:30 18° N 19:02:36 52° WNW 19:06:49 10° SSW
NOSS 3-2 (C) 4.1 18:57:38 10° NW 19:04:44 53° NE 19:06:15 47° ENE
Cosmos 2263 Rocket 2.8 19:05:52 10° NW 19:11:17 54° WSW 19:16:41 10° S
H-2A R/B 4.3 19:23:47 14° N 19:23:47 14° N 19:24:30 10° N
Cosmos 1400 Rocket 4.4 19:22:46 10° SSW 19:25:12 32° SW 19:25:12 32° SW
CENTAUR R/B 3.1 19:30:48 10° NW 19:38:33 61° NE 19:38:39 61° NE
IRS-1A Rocket 4.4 19:40:22 72° WNW 19:40:22 72° WNW 19:45:54 10° NNW
Cosmos 1844 Rocket 4.0 19:47:19 10° NNW 19:50:05 30° NNW 19:50:05 30° NNW
ATLAS 2AS CENTAUR R/B 4.0 19:53:24 10° SSW 19:57:20 32° S 19:57:20 32° S
ATLAS 3B R/B 3.4 19:55:43 10° NW 20:00:12 42° NNW 20:00:12 42° NNW
Cosmos 2278 Rocket 4.5 19:58:41 10° NNW 19:59:30 14° N 19:59:30 14° N
COSMOS 2455 4.0 19:59:29 10° SW 20:02:58 36° SW 20:02:58 36° SW
USA 238 DEB 4.1 19:58:53 10° NW 20:05:55 60° WSW 20:06:13 60° SW
USA 238 4.1 19:58:59 10° NW 20:06:01 61° WSW 20:06:16 60° SW
NOSS 3-2 (A) 4.2 20:01:21 10° NW 20:08:47 66° SW 20:09:12 65° SW
USA 215 4.3 20:39:14 39° WNW 20:39:14 39° WNW 20:43:06 10° NW
SL-16 R/B 4.2 20:33:05 10° WSW 20:35:59 24° W 20:35:59 24° W
Cosmos 2322 Rocket 4.4 20:38:45 10° WSW 20:40:48 20° W 20:40:48 20° W
CENTAUR R/B 4.5 21:21:43 10° NW 21:25:51 31° WNW 21:25:51 31° WNW
